Volver al catálogo

STARLINK-4659

ActivoComunicacionesVLEO
NORAD 54841·PAYLOAD·🇺🇸 United States

Lanzado Dec 28, 2022 desde Cape Canaveral Space Force Station

Loading…

Próximos Pases (próximas 24 horas)

TLE

ActualizadoSource: CelesTrak SupGP

Época: Sep 14, 2026, 20:38 UTC

1 54841C 22177X   26257.86020833 -.00023342  00000+0 -84550-3 0  2570
2 54841  43.0024 144.5810 0001403 262.1531  21.6350 15.27588256    15

Sigue STARLINK-4659 en tiempo real con AllMySat

Download on the App Store